Weather in Mexico

United States     39°10′13″N   91°52′57″W
temp.,
°C
wind,
m/s
gust,
m/s
humid.,
%
clouds,
%
prec.,
mm/h
press.,
hPa
HPBL,
m
26 may, thu
thu2601:00+15ssw1194100 0.3 100616
04:00+15ese229434 0.6 100536
07:00+15s1296100 1.2 1005129
10:00+17s458170 0.3 1005793
13:00+18ssw5575100 1.5 10051010
16:00+14sw3596100 1.1 1005253
19:00+13sw3496100 2.1 1006201
22:00+13sw3597100 0.6 1007148
27 may, fri
fri2701:00+13w3998100 1.1 1006369
04:00+14nnw61196100 0.3 1007485
07:00+13nw599690 0.4 1010393
10:00+13nw51092100 0.0 1012505
13:00+17nnw578192 0.0 1013791
16:00+19nw5672100 0.1 10131329
19:00+19n34760 0.1 1013254
22:00+14se11835 0.0 101311
28 may, sat
sat2801:00+13wsw11855 0.0 101410
04:00+12sse22895 0.0 101314
07:00+13s369012 0.0 1013127
10:00+19sse57735 0.0 1012511
13:00+24sse6858100 0.0 1010845
16:00+25sse61064100 0.2 1007896
19:00+23sse512764 0.2 1006458
22:00+21sse6167825 0.0 1006463
29 may, sun
sun2901:00+20sse71778100 0.0 1005508
04:00+20sse7187946 0.0 1003507
07:00+21s8208193 0.0 1003567
10:00+24s101973100 0.0 1003933
13:00+29ssw10186578 0.0 10031156
16:00+30ssw101863100 0.0 10031230
19:00+27ssw919675 0.0 1004655
22:00+25s8205353 0.0 1007696
30 may, mon
mon3001:00+23s8196129 0.0 1008635
04:00+22s71969100 0.0 1009535
07:00+21s7188199 0.0 1011443
10:00+26ssw7157286 0.0 1012689
13:00+29ssw710585 0.0 10131301
16:00+30s710640 0.0 10121508
19:00+27s48750 0.0 1012302
22:00+24s615660 0.0 1015501